User: anonymous   Login
Location: Beaurecueil
(43.5122°N, 5.5450°E)
Time: 22:10:24
(UTC+00:00)
Language:

Cosmos 1603 - Orbit

View from above orbital plane
View from above orbital plane
View from above satellite
View from above satellite

Ground track
Ground track

The orbit data is extracted from the following two-line orbital elements,

1 15333U 84106A   20328.17689231 -.00000024  00000-0  12424-4 0  9990
2 15333  71.0255 344.3273 0017389  97.8133 262.4964 14.14101177865674
Epoch (UTC): 23 November 2020 04:14:43
Eccentricity: 0.0017389
inclination: 71.0255°
perigee height: 833 km
apogee height: 858 km
right ascension of ascending node: 344.3273°
argument of perigee: 97.8133°
revolutions per day: 14.14101177
mean anomaly at epoch: 262.4964°
orbit number at epoch: 86567

The dashed part of the orbit path shows where the satellite is in the earth's shadow,  

DLR